Wind_Speed
73 71 69 66 62 57 50 48 39 36 38 28 34 30 32 27 17 15 18 13 13 7 1 7 14 15 19 22 23 25 27 24 27 29 33 33 36 41 42 40 39 38 36 32
73 73 74 71 67 61 56 54 44 42 41 35 31 35 30 26 23 23 21 18 12 7 4 2 6 12 14 18 21 21 25 27 29 34 33 35 37 37 40 40 39 38 38 36
73 78 79 76 68 66 62 60 54 40 48 44 34 30 33 26 30 27 26 25 17 15 10 5 2 4 9 11 17 18 20 22 25 28 32 33 35 37 38 41 39 37 37 41
72 80 80 78 75 71 69 64 61 51 47 43 41 42 38 39 35 32 36 33 25 20 17 10 5 3 3 9 8 13 13 15 19 25 26 28 30 33 36 38 41 38 39 41
71 79 81 80 81 78 72 69 61 50 54 46 38 49 50 43 37 34 37 34 27 23 22 15 11 7 7 3 8 7 10 13 14 16 20 24 27 32 35 34 35 35 38 40
70 78 83 82 83 82 76 73 70 71 61 58 44 37 51 48 53 50 38 35 27 25 27 24 19 12 9 7 1 6 6 9 12 12 15 15 12 23 29 30 33 34 38 37
68 69 78 81 87 85 78 75 77 75 60 66 58 48 41 44 49 57 47 42 36 43 36 31 24 17 11 12 6 1 3 4 7 8 8 8 14 11 18 22 27 30 31 34
72 71 75 82 86 86 82 82 83 73 80 72 63 54 53 40 54 51 50 52 47 50 46 37 26 20 17 16 13 7 1 3 2 6 6 7 6 7 10 9 14 17 19 22
72 77 80 83 88 89 87 85 85 81 74 80 67 44 54 60 61 58 54 50 48 49 42 40 35 27 23 24 18 12 10 5 6 7 7 4 3 2 5 8 8 6 12 14
68 70 73 82 87 88 86 90 89 85 83 74 77 61 58 58 60 62 57 54 50 50 49 48 35 34 27 29 25 19 13 11 10 9 9 7 6 4 3 1 6 6 9 5
66 68 72 74 85 87 86 89 89 89 87 78 89 89 76 71 61 56 57 58 56 56 57 48 46 37 31 34 30 23 19 15 14 15 14 12 9 9 8 7 3 6 5 3
70 73 74 75 78 89 91 90 93 95 94 94 86 100 87 81 78 61 67 63 60 60 59 50 52 44 36 40 34 25 26 24 19 18 19 16 14 13 12 12 9 8 10 10
65 68 70 74 79 84 90 94 92 96 101 100 100 93 89 87 86 77 63 63 60 59 54 56 51 48 42 48 43 34 21 11 26 24 24 21 19 18 16 13 14 13 13 13
66 72 75 76 77 84 87 94 92 97 103 102 101 97 96 93 90 88 69 68 61 53 53 58 50 41 32 36 36 37 37 41 46 33 33 29 25 24 21 19 18 16 16 18
61 71 77 76 75 78 80 88 94 94 98 101 102 102 96 94 95 93 89 83 77 74 66 64 58 52 55 60 54 49 45 46 45 43 37 39 33 29 25 23 22 20 18 19
54 63 74 75 74 77 77 82 91 96 93 101 104 107 100 93 96 91 93 87 77 83 85 78 75 76 67 70 69 64 59 57 54 51 46 43 38 30 27 27 28 28 26 23
54 56 62 70 81 81 80 86 88 94 96 97 104 112 105 104 95 76 81 88 82 76 76 81 75 71 72 70 69 67 64 63 62 58 59 49 46 43 35 34 29 33 32 22
58 59 60 64 70 77 87 85 87 91 103 102 108 109 99 99 87 88 78 78 98 84 75 75 73 66 70 70 69 71 69 73 65 62 64 61 51 50 51 46 47 46 42 43
54 57 64 64 61 68 82 90 93 91 90 98 100 94 94 93 91 95 93 85 91 100 96 89 89 81 77 74 74 75 71 78 67 65 67 66 61 59 54 55 56 55 53 51
50 55 60 69 76 77 70 78 89 92 91 98 98 93 88 96 96 101 104 101 65 79 104 98 88 87 90 84 81 77 81 79 73 72 68 71 71 66 66 62 59 62 61 58
37 48 58 71 76 74 76 80 78 87 93 96 100 95 84 81 102 69 112 117 116 93 92 105 100 100 92 87 76 82 84 84 81 86 81 75 74 74 71 70 72 72 70 65
32 33 51 64 75 81 79 75 77 80 92 97 102 93 82 90 93 107 85 101 103 87 111 103 102 101 110 98 93 85 87 87 88 86 82 82 81 82 77 80 79 76 77 73
38 42 44 54 46 85 86 90 82 78 87 95 101 103 103 94 105 104 91 81 110 97 87 96 127 106 107 114 103 99 96 84 81 94 93 86 88 89 88 88 83 82 85 79
40 43 45 49 67 77 91 94 86 80 84 92 101 108 107 100 102 112 126 99 81 96 116 115 95 116 105 114 111 111 109 106 102 96 91 87 85 79 77 72 79 87 89 86
27 38 38 42 48 66 80 92 95 87 88 91 95 102 106 112 109 114 112 119 126 119 110 98 110 115 117 117 115 121 118 117 114 111 112 112 105 98 92 89 82 82 85 83
19 23 28 37 41 54 66 82 94 94 95 96 94 93 101 107 116 115 113 115 118 119 121 121 119 117 116 122 122 121 124 127 125 121 124 125 124 115 115 109 104 101 95 94
Wind_Direction
213 210 207 205 204 204 196 195 182 187 192 193 208 206 221 219 216 243 254 248 261 303 360 50 57 53 58 54 55 54 52 53 54 54 50 50 51 54 57 61 61 63 66 73
209 209 207 203 202 202 198 195 191 188 197 202 202 213 220 220 238 250 245 229 235 257 223 264 59 52 48 58 54 59 57 52 55 54 53 50 51 52 54 56 62 64 69 75
206 208 206 202 199 202 199 200 191 189 196 202 206 218 219 212 231 236 229 231 234 249 233 221 271 25 40 49 60 59 61 54 48 49 52 48 45 48 52 54 59 62 62 67
207 207 205 201 199 200 202 199 197 192 197 193 204 212 223 246 220 237 230 226 242 238 245 228 221 271 353 36 61 59 62 57 50 43 52 49 52 52 53 56 57 57 61 64
208 206 205 202 200 200 199 200 194 198 198 189 200 212 221 226 204 182 225 224 239 236 236 240 231 226 259 26 40 55 67 69 58 42 50 55 59 54 54 60 59 58 61 67
208 205 204 203 202 201 199 201 198 203 198 191 187 201 211 210 208 210 216 219 222 236 253 240 241 238 247 259 342 43 66 73 81 53 57 70 65 55 60 65 61 68 69 70
205 206 205 206 205 201 200 200 202 202 202 205 200 205 206 211 212 218 222 226 234 249 246 253 237 241 258 258 238 237 47 81 103 88 70 67 86 61 60 72 74 74 67 68
202 201 203 206 206 201 199 203 205 204 206 207 204 210 211 209 216 218 240 240 237 243 243 238 239 250 269 249 245 240 180 160 134 128 114 115 92 83 55 72 67 56 72 58
205 204 205 204 203 204 201 202 205 202 207 205 204 211 219 224 232 235 227 226 225 231 230 231 237 250 264 254 249 246 229 219 206 177 162 164 190 104 48 49 43 48 26 45
210 211 210 206 205 205 207 203 204 206 205 203 204 203 213 214 221 226 223 227 231 230 232 241 230 241 254 260 241 238 231 217 226 213 199 194 241 237 274 360 353 345 347 46
211 215 212 211 207 207 209 206 206 207 206 204 205 207 209 206 218 225 229 234 232 235 237 242 243 240 258 253 242 233 240 231 217 228 227 224 224 256 257 242 282 288 295 281
211 212 211 209 210 209 210 208 208 207 208 208 207 208 210 212 217 229 237 240 234 232 233 236 239 244 249 242 231 232 237 234 226 225 230 238 243 245 258 259 248 276 277 281
214 215 213 213 213 212 212 211 209 209 211 212 213 214 215 217 218 216 220 223 233 230 234 235 232 245 247 237 227 235 232 213 251 234 228 228 234 250 256 259 258 265 275 281
214 216 217 215 216 215 214 215 212 211 213 214 215 216 218 218 220 215 216 220 224 229 231 236 231 236 226 217 217 216 222 225 239 246 238 232 236 242 246 255 259 268 264 265
217 219 221 219 217 219 218 216 218 215 215 216 218 216 218 224 223 221 218 224 224 228 230 232 242 232 212 224 233 246 247 244 242 246 239 237 232 237 244 251 257 260 266 270
217 219 223 223 223 223 219 220 220 218 218 218 219 221 210 217 223 226 226 224 226 230 233 239 243 240 237 225 235 243 244 245 246 246 245 242 234 227 244 253 253 263 267 267
223 222 222 223 223 222 222 223 221 220 219 219 219 222 214 221 221 224 238 230 228 237 236 236 236 236 237 240 241 240 241 241 249 246 247 247 251 238 233 246 242 251 258 261
227 226 223 223 223 223 224 227 224 222 221 220 223 223 219 219 219 221 227 227 222 220 226 233 229 231 237 242 244 240 240 236 248 245 243 249 248 247 245 245 244 250 250 259
234 225 225 223 225 226 222 221 225 225 224 225 227 226 218 221 220 220 224 236 226 222 225 224 226 232 235 236 236 240 238 237 247 241 243 245 248 251 251 253 244 255 250 258
233 232 224 219 221 228 224 224 224 224 222 224 225 227 222 218 218 223 223 223 228 227 224 223 226 234 230 238 234 236 239 241 244 240 241 243 244 249 255 254 256 262 261 262
230 226 223 220 220 222 226 223 223 222 220 223 222 221 220 225 215 227 226 228 235 224 221 220 225 228 231 233 231 234 237 240 246 245 245 244 243 249 253 261 260 263 261 260
226 222 218 218 220 222 222 228 224 222 221 220 220 217 219 216 216 217 230 233 228 235 235 230 225 228 228 232 232 228 232 235 242 241 242 247 245 243 253 260 256 255 256 259
222 224 221 207 219 222 220 223 223 220 223 220 218 216 216 218 217 219 224 233 228 226 230 236 232 233 237 235 233 234 233 230 235 240 244 245 242 245 255 254 253 254 254 255
226 232 231 219 220 219 218 223 225 226 229 224 221 219 218 217 218 222 223 223 227 235 236 234 237 231 234 235 233 234 236 236 241 239 242 238 239 242 248 252 249 251 253 255
237 238 236 235 223 224 220 219 224 223 227 229 223 223 223 222 223 226 226 228 230 234 237 236 235 236 235 234 237 239 241 240 243 242 245 244 248 244 244 243 249 256 258 257
249 248 244 239 229 227 224 223 223 224 225 231 229 224 223 227 225 227 227 230 231 235 239 240 241 239 239 239 240 241 242 242 245 246 248 250 254 253 252 251 249 247 259 257
Height
10881 10897 10912 10922 10934 10948 10957 10966 10974 10979 10986 10987 10990 10991 10993 10998 11002 11006 11008 11010 11013 11015 11016 11016 11014 11012 11010 11009 11008 11006 11004 11003 11000 10997 10995 10993 10989 10986 10983 10979 10976 10971 10968 10967
10869 10885 10895 10910 10923 10940 10949 10957 10964 10970 10978 10983 10985 10989 10991 10996 10999 11003 11005 11009 11010 11014 11016 11016 11015 11015 11014 11013 11012 11011 11009 11008 11006 11004 11002 10999 10998 10995 10991 10987 10983 10978 10975 10975
10854 10865 10880 10899 10918 10929 10939 10948 10957 10964 10970 10975 10980 10982 10986 10992 10996 10999 11003 11006 11009 11011 11016 11017 11017 11017 11017 11016 11015 11015 11014 11013 11013 11011 11009 11007 11004 11002 11000 10995 10990 10985 10981 10981
10838 10851 10872 10891 10903 10916 10927 10939 10950 10957 10958 10966 10972 10976 10979 10985 10991 10994 10998 11002 11007 11009 11012 11017 11018 11019 11020 11019 11018 11019 11019 11017 11018 11017 11015 11014 11009 11008 11006 11003 10999 10995 10989 10987
10827 10845 10863 10879 10889 10902 10919 10929 10940 10946 10951 10961 10965 10971 10975 10981 10989 10991 10991 10999 11002 11006 11010 11015 11017 11020 11022 11022 11022 11021 11022 11022 11022 11021 11020 11018 11017 11014 11013 11008 11008 11005 11002 10997
10816 10831 10849 10863 10877 10890 10910 10920 10931 10938 10944 10949 10958 10965 10969 10974 10977 10983 10988 10994 10998 11003 11008 11012 11015 11018 11022 11025 11025 11025 11026 11026 11026 11024 11023 11022 11021 11020 11020 11019 11017 11014 11010 11008
10808 10828 10844 10854 10862 10883 10903 10910 10918 10926 10936 10944 10952 10961 10966 10967 10973 10978 10981 10987 10994 11000 11007 11009 11012 11017 11020 11024 11026 11028 11029 11029 11029 11027 11027 11026 11025 11027 11025 11026 11025 11022 11016 11012
10794 10811 10823 10828 10852 10872 10885 10895 10903 10912 10923 10931 10946 10954 10960 10961 10965 10970 10975 10981 10988 10995 11001 11007 11010 11015 11018 11021 11025 11028 11031 11032 11032 11030 11028 11029 11030 11031 11029 11028 11029 11027 11022 11018
10782 10793 10803 10822 10835 10850 10866 10880 10888 10899 10909 10923 10941 10952 10951 10954 10957 10964 10968 10973 10982 10988 10994 11001 11008 11012 11016 11020 11022 11026 11028 11031 11032 11033 11031 11030 11031 11033 11032 11031 11031 11028 11027 11025
10782 10793 10808 10816 10829 10845 10855 10864 10875 10889 10899 10915 10924 10934 10937 10943 10947 10954 10959 10964 10975 10980 10990 10998 11004 11009 11012 11017 11018 11021 11024 11025 11030 11031 11032 11032 11032 11035 11034 11034 11031 11029 11028 11029
10776 10786 10794 10812 10825 10832 10840 10858 10870 10879 10886 10898 10903 10909 10915 10927 10937 10946 10952 10956 10966 10972 10980 10990 10999 11004 11007 11010 11013 11015 11020 11023 11025 11028 11029 11030 11031 11033 11036 11036 11032 11030 11031 11031
10760 10765 10780 10794 10805 10814 10823 10838 10849 10863 10871 10882 10887 10893 10906 10918 10926 10933 10943 10948 10959 10967 10975 10985 10993 11000 11003 11003 11006 11009 11012 11018 11022 11024 11026 11028 11028 11029 11031 11035 11035 11030 11030 11030
10757 10765 10774 10781 10787 10799 10810 10819 10833 10849 10853 10865 10872 10884 10900 10905 10909 10917 10927 10940 10948 10961 10969 10977 10987 10994 10993 10991 10997 11004 11009 11017 11019 11022 11022 11024 11024 11024 11025 11028 11031 11032 11029 11028
10741 10748 10753 10764 10780 10784 10800 10810 10821 10829 10833 10849 10862 10876 10883 10889 10899 10911 10922 10932 10944 10951 10960 10966 10979 10982 10991 10976 10982 10997 11002 11011 11009 11016 11017 11020 11020 11021 11021 11022 11024 11026 11028 11029
10728 10734 10739 10755 10763 10776 10788 10799 10808 10818 10829 10835 10846 10851 10876 10890 10891 10903 10913 10921 10934 10937 10947 10954 10964 10967 10980 10965 10972 10982 10995 10998 11002 11005 11008 11011 11014 11016 11017 11017 11019 11020 11020 11022
10715 10719 10728 10745 10757 10763 10771 10777 10789 10800 10815 10818 10828 10832 10877 10840 10878 10886 10893 10911 10918 10927 10936 10942 10951 10961 10966 10966 10970 10975 10980 10986 10991 10995 11000 11004 11007 11007 11011 11013 11014 11015 11017 11018
10701 10708 10720 10728 10727 10742 10756 10757 10765 10781 10791 10803 10805 10800 10843 10847 10867 10891 10885 10902 10909 10918 10924 10929 10936 10941 10944 10955 10962 10966 10971 10977 10980 10985 10988 10994 10997 10999 11001 11006 11005 11006 11010 11011
10686 10695 10703 10706 10717 10727 10730 10749 10755 10764 10763 10782 10773 10796 10842 10845 10864 10867 10866 10867 10879 10899 10911 10917 10919 10926 10933 10939 10945 10949 10955 10962 10966 10971 10975 10978 10984 10987 10989 10992 10995 10997 10999 11002
10667 10673 10680 10694 10706 10703 10714 10723 10729 10742 10764 10772 10779 10800 10826 10841 10849 10848 10854 10861 10862 10869 10884 10896 10898 10906 10917 10922 10928 10931 10938 10945 10950 10955 10961 10964 10967 10971 10974 10978 10981 10983 10986 10989
10651 10656 10664 10669 10676 10685 10698 10703 10710 10727 10742 10750 10768 10786 10803 10817 10826 10829 10832 10840 10841 10848 10863 10876 10884 10889 10894 10905 10913 10917 10919 10927 10931 10934 10943 10948 10951 10954 10959 10963 10965 10968 10972 10974
10632 10634 10641 10650 10658 10669 10674 10678 10692 10700 10723 10731 10744 10763 10795 10794 10806 10794 10805 10810 10815 10833 10841 10853 10865 10874 10879 10885 10894 10900 10903 10907 10913 10916 10923 10930 10934 10938 10942 10946 10951 10952 10954 10958
10615 10617 10623 10634 10648 10657 10663 10671 10678 10685 10696 10707 10720 10751 10765 10761 10780 10783 10774 10780 10794 10803 10818 10832 10845 10850 10859 10867 10873 10879 10884 10889 10894 10897 10903 10909 10916 10920 10922 10928 10932 10934 10936 10939
10607 10607 10614 10626 10631 10638 10647 10650 10658 10667 10675 10686 10703 10723 10712 10740 10756 10762 10764 10761 10775 10784 10797 10807 10820 10830 10837 10845 10852 10861 10866 10868 10873 10879 10882 10887 10892 10899 10901 10907 10911 10914 10916 10919
10599 10601 10602 10608 10611 10615 10625 10631 10644 10654 10657 10671 10678 10693 10705 10718 10720 10728 10731 10741 10748 10760 10775 10789 10795 10805 10813 10822 10829 10838 10844 10849 10855 10862 10866 10868 10874 10876 10881 10883 10887 10888 10894 10899
10590 10588 10593 10595 10602 10603 10609 10618 10621 10635 10641 10649 10661 10675 10689 10698 10702 10707 10717 10725 10732 10742 10751 10760 10771 10782 10792 10800 10806 10813 10820 10827 10832 10838 10844 10846 10852 10853 10860 10866 10865 10865 10869 10875
10581 10581 10583 10583 10587 10586 10595 10599 10608 10618 10624 10629 10640 10655 10666 10673 10680 10686 10699 10706 10715 10723 10728 10739 10747 10755 10765 10774 10784 10792 10799 10804 10809 10814 10815 10821 10827 10831 10832 10837 10845 10849 10851 10854